Other Public Products
Issued by NWS Charleston, SC

Current Version | Previous Version | Text Only | Print | Product List | Glossary On
Versions: 1 2 3 4 5 6 7 8 9 10 11 12 13 14 15 16 17 18 19 20 21 22 23 24 25 26 27 28 29 30 31 32 33 34 35 36 37 38 39 40 41 42 43 44 45 46 47 48 49 50
000 FPUS82 KCHS 240927 OPUCHS TEST...KCHS/KSAV Gateway Observations...TEST National Weather Service Charleston SC 500 AM EDT SAT JUN 24 2017 NOTE: "fair" indicates few or no clouds below 12,000 feet with no significant weather and/or obstructions to visibility. SCZ050-WAZ558-NCZ071-TXZ119-213-PAZ071-DCZ001-FLZ074-172-MI076- NYZ176-178-MAZ016-IL014-TNZ027-NJZ106-GAZ044-MD014-241000- ...Gateway Observations for Charleston International... CITY SKY/WX TMP DP RH WIND PRES REMARKS Chas Airport PTCLDY 79 75 87 SW12 29.97R Seattle CLEAR 64 47 53 N6 30.15S Charlotte CLOUDY 74 70 87 W10 29.91S Dallas DFW CLOUDY 73 70 90 NE5 29.94S Dallas Love TSTM 75 72 90 E8 29.96R Philladelphia LGT RAIN 77 73 87 SW9 29.57F Wash National LGT RAIN 75 72 90 NW18G28 29.65R Baltimore RAIN 74 73 97 NW15G31 29.60R FOG Miami MOCLDY 83 74 74 SE9 30.01F Detroit PTCLDY 64 55 72 W7 29.77R Newark LGT RAIN 72 71 97 W6 29.60R Laguardia CLOUDY 74 71 91 NW9 29.60R J F K CLOUDY 73 72 96 S6 29.60F Boston Logan MOCLDY 71 70 96 S13 29.52S Ft. Lauderdale CLOUDY 82 76 81 SE8 30.00F Chicago O`Hare CLEAR 63 55 75 W10 29.88R Chicago Midway CLEAR 64 56 75 W8 29.88R Houston Bush MOCLDY 78 76 93 CALM 29.94S Houston Hobby LGT RAIN 83 79 88 SE3 29.94S HX 94 Nashville MOCLDY 74 67 78 NW6 29.94R Atlanta CLOUDY 72 71 97 SW8 29.98R $$ GAZ044-118-TXZ119-213-NCZ071-DCZ001-MDZ014-506-PAZ021-071-NJZ106- NYZ176-178-MAZ106-OHZ011-021-055-MIZ076-KYZ091-ILZ014-INZ047- MNZ060-ONZ431-241000- ...Gateway Observations for Savannah International... CITY SKY/WX TMP DP RH WIND PRES REMARKS Savannah Arpt CLEAR 77 72 84 SW6 30.00R Atlanta CLOUDY 72 71 97 SW8 29.98R Charlotte CLOUDY 74 70 87 W10 29.91S Dallas DFW CLOUDY 73 70 90 NE5 29.94S Houston Bush MOCLDY 78 76 93 CALM 29.94S Wash National LGT RAIN 75 72 90 NW18G28 29.65R Wash Dulles CLOUDY 70 67 90 NW12 29.66R Baltimore RAIN 74 73 97 NW15G31 29.60R FOG Philadelphia LGT RAIN 77 73 87 SW9 29.57F Newark LGT RAIN 72 71 97 W6 29.60R Laguardia CLOUDY 74 71 91 NW9 29.60R J F K CLOUDY 73 72 96 S6 29.60F Boston MOCLDY 71 70 96 S13 29.52S Pittsburg MOCLDY 67 66 97 W9 29.78R Akron CLEAR 64 60 87 W7 29.80R Cleveland CLEAR 65 60 84 W9 29.79R Cincinnati PTCLDY 62 62 100 W6 29.89S FOG Columbus CLEAR 60 60 100 SW3 29.85S Detroit PTCLDY 64 55 72 W7 29.77R Chicago O`Hare CLEAR 63 55 75 W10 29.88R Minneapolis PTCLDY 57 46 66 W9 29.95S Indianapolis PTCLDY 63 57 81 W10 29.91R Toronto Canada MOCLDY 63 54 72 W6 29.65R $$

USA.gov is the U.S. government's official web portal to all federal, state and local government web resources and services.